Retour au catalogue

SIMSAT 2

ActifRadio amateurPO
NORAD 26366·PAYLOAD·🇷🇺 Russia

Lancé May 16, 2000 depuis Plesetsk Cosmodrome

Loading…

Prochains Passages (prochaines 24 heures)

TLE

FraisSource: Space-Track

Époque: Sep 14, 2026, 11:26 UTC

1 26366U 00026B   26257.47672833  .00001775  00000-0  60077-4 0  9997
2 26366  86.3396  83.5727 0003683 299.6794  60.4087 15.29829778456860

Suivez SIMSAT 2 en temps réel avec AllMySat

Download on the App Store